レオナード彗星

C/2020 H4 ( Leonard )

English version
Home page
Updated on July 3, 2020

---------------------------------------------------------------------

・ プロフィール

発見日 2020年4月21日
発見光度 19.5等
発見者 Gregory J. Leonard (Mount Lemmon Survey)

・ 軌道要素

Epoch 2020 Aug. 19.0 TT = JDT 2459080.5
T 2020 Aug. 29.24600 TT                                 Rudenko
q   0.9383865            (2000.0)            P               Q
z  +0.0069600      Peri.  116.76574     -0.20596761     -0.58209188
 +/-0.0005745      Node   307.76904     +0.02286259     +0.80075772
e   0.9934689      Incl.   84.31958     +0.97829170     -0.14126612
From 30 observations 2020 Apr. 21-June 2, mean residual 0".5.

・ 星図

・ 光度変化

        m1 = 14.0 + 5 logΔ + 10.0 log r

---------------------------------------------------------------------

軌道要素はM.P.E.C. 2020-M114に掲載されたものです。
星図はステラナビゲータ Ver.10 (アストロアーツ) で作成したものです。
光度グラフはComet for Windowsで作成したものです。

---------------------------------------------------------------------

Copyright(C) Seiichi Yoshida (comet@aerith.net). All rights reserved.